This demonstration page uses our WeatherBlox Daily Observations layout. Learn more.

Left ArrowRight Arrow

Hourly Observations for July 24, 2018

Temp ( °F °C ) Dew Point ( °F °C ) Humidity (%) Winds ( mph kmh ) Pressure ( in mb ) Visibility ( mi km ) Precip ( " mm )
12:53 am 00:53 Clear 84 28.9 58 14.4 41 41 ENE 15 24 29.91 1013 10 16 0.00 0.00
1:53 am 01:53 Clear 82 27.8 56 13.3 41 41 ENE 14 22 29.94 1014 10 16 0.00 0.00
2:53 am 02:53 Clear 81 27.2 54 12.2 39 39 ENE 14 22 29.95 1014 10 16 0.00 0.00
3:53 am 03:53 Clear 80 26.7 49 9.4 34 34 E 15 24 29.95 1014 10 16 0.00 0.00
4:53 am 04:53 Clear 79 26.1 49 9.4 35 35 NE 10 17 29.96 1014 10 16 0.00 0.00
5:53 am 05:53 Clear 78 25.6 51 10.6 39 39 N 8 13 29.98 1015 10 16 0.00 0.00
6:53 am 06:53 Clear 78 25.6 48 8.9 35 35 N 16 26 30.04 1017 10 16 0.00 0.00
7:53 am 07:53 Sunny 78 25.6 46 7.8 32 32 NNE 16 26 30.05 1018 10 16 0.00 0.00
8:53 am 08:53 Sunny 80 26.7 49 9.4 34 34 ENE 12 19 30.05 1018 10 16 0.00 0.00
9:53 am 09:53 Sunny 84 28.9 53 11.7 34 34 E 13 20 30.05 1018 10 16 0.00 0.00
10:53 am 10:53 Sunny 88 31.1 54 12.2 31 31 E 10 17 30.04 1017 10 16 0.00 0.00
11:53 am 11:53 Sunny 90 32.2 54 12.2 29 29 VRB 7 11 30.04 1017 10 16 0.00 0.00
12:53 pm 12:53 Sunny 92 33.3 55 12.8 29 29 E 8 13 30.02 1017 10 16 0.00 0.00
1:53 pm 13:53 Sunny 95 35 55 12.8 26 26 VRB 7 11 30.00 1016 10 16 0.00 0.00
2:53 pm 14:53 Sunny 96 35.6 55 12.8 25 25 VRB 3 6 29.97 1015 10 16 0.00 0.00
3:53 pm 15:53 Sunny 100 37.8 54 12.2 21 21 VRB 3 6 29.94 1014 10 16 0.00 0.00
4:53 pm 16:53 Sunny 97 36.1 54 12.2 24 24 E 9 15 29.93 1014 10 16 0.00 0.00
5:53 pm 17:53 Sunny 97 36.1 55 12.8 24 24 ENE 10 17 29.92 1013 10 16 0.00 0.00
6:53 pm 18:53 Sunny 96 35.6 55 12.8 25 25 E 16 26 29.92 1013 10 16 0.00 0.00
7:53 pm 19:53 Sunny 94 34.4 55 12.8 27 27 E 15 24 29.93 1014 10 16 0.00 0.00
8:53 pm 20:53 Sunny 91 32.8 56 13.3 31 31 E 10 17 29.94 1014 10 16 0.00 0.00
9:53 pm 21:53 Clear 89 31.7 57 13.9 34 34 ENE 10 17 29.96 1015 10 16 0.00 0.00
10:53 pm 22:53 Clear 86 30 57 13.9 37 37 ENE 8 13 29.98 1015 10 16 0.00 0.00
11:53 pm 23:53 Clear 85 29.4 57 13.9 39 39 ENE 8 13 29.98 1015 10 16 0.00 0.00

Powered by AerisWeather